Location: Unspecified
(0.0000°N, 0.0000°E)
Time: 23:38:55
(UTC+01:00)

Coronas F rocket - Visible Passes

Search period start: 28 November 2014 00:00
Search period end: 08 December 2014 00:00
Orbit: 388 x 406 km, 82.5° (Epoch: 28 November)

Date Brightness Start Highest point End Pass type
(mag) Time Alt. Az. Time Alt. Az. Time Alt. Az.
28 Nov 4.4 20:20:01 10° NW 20:22:20 20° W 20:24:39 10° SW visible
29 Nov 1.8 19:27:30 10° NNE 19:30:26 46° E 19:33:24 10° SSE visible
30 Nov 4.8 20:09:31 10° NW 20:11:29 16° W 20:13:27 10° SW visible
01 Dec 1.6 19:16:30 10° N 19:19:31 61° E 19:22:34 10° SSE visible
02 Dec 5.0 19:59:01 10° WNW 20:00:29 13° W 20:01:58 10° WSW visible
04 Dec 5.4 19:48:48 10° W 19:49:21 10° W 19:49:54 10° WSW visible
